Showing default

ORBCOMM FM 28, 25482

Orbit data source: Space-Track

ORBCOMM FM 28, 25482 is a payload satellite owned by Orbcomm (US) in LEO that was launched on Wed, 23 Sep 1998 UTC via a PEGASUS XL/HAPS launch vehicle from the Pegasus Launch, Eastern Range Air Space (ERAS). Payload-class satellites include a variety of spacecraft equipped with specific instruments for various scientific and technological missions. These include communications satellites like Starlink; space stations such as the ISS; scientific satellites like the Hubble; Earth observation satellites from companies like Planet Labs, Umbra, and HawkEye 360; GPS; miniature CubeSats for education and research; and military/defense satellites.

Loading next visibility...
Identifier
25482, 1998-053H
Orbit
LEO
Country
Flag of USUS / ORB
Related business
Manufacturer
OSC-Germantown
Mission
Non-operational Commercial Communications
Bus & Motor
MICROSTAR, Unknown motor
Mass
42 kg wet, 42 kg dry
Launch date (UTC)
1998-09-23 (27 years ago)
Launch vehicle
PEGASUS XL/HAPS
Launch site
Pegasus Launch, Eastern Range Air Space (ERAS)
Object type
Payload
Rocket body
Debris
Shape & HBR
Cyl + 2 Pan, 2.1 m
Radar Cross Section
1.484 m², Medium (>0.1 m² and < 1m²)

Expand to show TLE details & history
Last TLE update: 1 day ago

TLE from 1 day ago
0 ORBCOMM FM 28
1 25482U 98053H   25348.59408302  .00001263  00000-0  45317-3 0  9994
2 25482  45.0059  69.0883 0004432 150.3906 209.7194 14.38791505424338
Epoch: 2025-12-14T14:15Z
TLE epoch observation values (Epoch: 2025-12-14T14:15:28.772Z)
Latitude
-0.00005°
Longitude
131.71361°
Altitude
765.242 km
Speed
7.472 km/s
True Right ascension
04h 36m 21s
True Declination
0° 00' 00"
Sunlit
Object was in full shadow at epoch
Visualization orbit readout
Latitude
Unknown
Longitude
Unknown
Altitude
Unknown
Speed
Unknown
Apparent Right ascension
Unknown
Apparent Declination
Unknown
Sunlit
N/A
Visualization observer readout
Local Sidereal Time
13:25:44
Azimuth
Unknown
Elevation
Unknown
Doppler factor
Unknown
Orbital elements
Apogee altitude
767.205 km
Perigee altitude
760.874 km
Semi-major axis
7,142.177 km
Eccentricity
0.00044
Inclination
45.0059°
RAAN
69.0883°
Arg. of periapsis
150.3906°
True anomaly
209.69423°
Mean anomaly
209.7194°
Eccentric anomaly
209.70682°
Mean motion
3.59581 °/min
Orbital period
100.12 mins
BSTAR
0.00045317
Loading maneuver chart data...
Computing Atmospheric mass density...
Loading historical data...
Loading historical data...
Loading historical data...
Loading historical data...
Loading historical data...
Loading historical data...
Loading historical data...

Documentation

Showing up to 5 results
|